Simultaneous Nadir Overpasses (SNOs) Predictions

Prediction of SNOs between NOAA-19 and TERRA Satellite Orbit:

Table of predicted SNOs for the next 14.0 days since TLE Epoch: 6/30/2014
Index Date (NOAA-19) Time (NOAA-19) Lat,Lon (NOAA-19) SZA (NOAA-19 ) Date (TERRA) Time (TERRA) Lat,Lon (TERRA) SZA (TERRA ) Distance(km) Time Diff (sec)
1 07/02/2014 05:29:46 71.25, 98.13 48.11 07/02/2014 05:30:55 71.12, 99.65 47.98 56.74 69
2 07/02/2014 06:20:34 -70.63, -93.55 132.51 07/02/2014 06:20:32 -70.62, -93.48 132.52 2.56 2
3 07/02/2014 07:11:20 69.71, 75.15 46.58 07/02/2014 07:10:13 69.75, 72.91 46.61 86.39 67
4 07/04/2014 11:04:25 -70.66,-164.53 132.31 07/04/2014 11:04:47 -70.65,-164.51 132.32 1.72 22
5 07/04/2014 11:55:25 70.51, 2.95 47.55 07/04/2014 11:54:15 70.48, 2.90 47.52 3.42 70
6 07/06/2014 15:48:16 -70.70, 124.46 132.06 07/06/2014 15:49:01 -70.72, 124.54 132.04 3.50 45
7 07/06/2014 16:39:15 70.53, -68.01 47.78 07/06/2014 16:38:29 70.55, -68.06 47.80 3.11 46
8 07/08/2014 20:32:07 -70.74, 53.45 131.77 07/08/2014 20:33:16 -70.72, 53.49 131.79 2.60 69
9 07/08/2014 21:23:06 70.61,-139.08 48.11 07/08/2014 21:22:43 70.61,-139.04 48.10 1.46 23
10 07/11/2014 01:16:12 -71.52, -18.84 130.72 07/11/2014 01:17:19 -71.37, -16.55 130.86 82.59 67
11 07/11/2014 02:06:56 70.65, 149.93 48.42 07/11/2014 02:06:57 70.66, 149.97 48.43 2.19 1
12 07/11/2014 02:57:46 -70.00, -41.78 132.23 07/11/2014 02:56:36 -70.07, -43.26 132.17 56.90 70
13 07/13/2014 06:50:46 70.69, 78.93
